STARLINK-2424, 47834

Orbit data source: Space-Track

STARLINK-2424, 47834 is a payload satellite owned by SpaceX/Seattle (US) in LEO that was launched on Thu, 11 Mar 2021 UTC via an FALCON 9 launch vehicle from the Air Force Eastern Test Range (AFETR). Payload-class satellites include a variety of spacecraft equipped with specific instruments for various scientific and technological missions. These include communications satellites like Starlink; space stations such as the ISS; scientific satellites like the Hubble; Earth observation satellites from companies like Planet Labs, Umbra, and HawkEye 360; GPS; miniature CubeSats for education and research; and military/defense satellites.

Loading next visibility...
Identifier
47834, 2021-018AZ
Orbit
LEO
Country
Flag of USUS
Related business
Manufacturer
SpaceX/Seattle
Mission
Operational Commercial Communications
Bus & Motor
STARLINK, Unknown motor
Mass
260 kg wet, ~248 kg dry
Launch date (UTC)
2021-03-11 (5 years ago)
Launch vehicle
FALCON 9
Launch site
Air Force Eastern Test Range (AFETR)
Object type
Payload
Rocket body
Debris
Shape & HBR
Box + 1 Pan, 10.1 m
Radar Cross Section
13.562 m², Large (>1 m²)

Expand to show TLE details & history
Last TLE update: 2 days ago

TLE from 2 days ago
0 STARLINK-2424
1 47834U 21018AZ  26171.20152173 -.00000568  00000-0 -65533-5 0  9994
2 47834  53.1594 128.1452 0001218 102.0509 258.0629 15.31695693292459
Epoch: 2026-06-20T04:50Z
TLE epoch observation values (Epoch: 2026-06-20T04:50:11.477Z)
Latitude
-0.00002°
Longitude
147.17783°
Altitude
471.826 km
Speed
7.631 km/s
True Right ascension
08h 32m 34s
True Declination
0° 00' 00"
Sunlit
Object was in daylight at epoch
Visualization orbit readout
Latitude
Unknown
Longitude
Unknown
Altitude
Unknown
Speed
Unknown
Apparent Right ascension
Unknown
Apparent Declination
Unknown
Sunlit
N/A
Visualization observer readout
Local Sidereal Time
01:06:55
Azimuth
Unknown
Elevation
Unknown
Doppler factor
Unknown
Orbital elements
Apogee altitude
471.844 km
Perigee altitude
470.175 km
Semi-major axis
6,849.147 km
Eccentricity
0.00012
Inclination
53.1594°
RAAN
128.1452°
Arg. of periapsis
102.0509°
True anomaly
258.04925°
Mean anomaly
258.0629°
Eccentric anomaly
258.05607°
Mean motion
3.82903 °/min
Orbital period
94.02 mins
BSTAR
-0.0000065533
Loading maneuver chart data...
Computing Atmospheric mass density...
Loading historical data...
Loading historical data...
Loading historical data...
Loading historical data...
Loading historical data...
Loading historical data...
Loading historical data...

Documentation

Showing up to 5 results
|